Starlink 31950

operational
NORAD ID: 59863 Int'l Des: 2024-098 Owner: SPXS Country: US Constellation: starlink
LEOCIRCULAR

Starlink 31950について

説明を読み込み中...

リアルタイム位置

3D地球を読み込み中...

次回通過

高度履歴

Altitude vs Time

uPlot chart will show altitude changes over time

軌道要素

1 59863U 24098F 26035.20223191 -.00000862 00000-0 -21826-4 0 9991
2 59863 42.9995 107.2074 0000335 276.5408 83.5405 15.27576920 96728
Epoch: Feb 4, 2026 • Age: 9 hours

現在のステータス

高度 495.6 km
速度 7.62 km/s
衛星直下点 -41.76°S, 15.26°E
打ち上げ日 May 24, 2024
運用期間 1.7 years
タイプ internet

技術仕様

分類 Payload
質量 730.00 kg
乾燥質量 700.00 kg
総質量 730.00 kg
長さ 0.30 m
直径 4.10 m
スパン 29.00 m
形状 Box + pan
製造者 SPXS
バスタイプ Starlink V2M
フェーズステータス In Orbit
所有者/国 SPXS/US

大規模コンステレーション

Loading constellations...